Theta_e
313 316 318 322 327 329 335 335 332 336 336 332 330 336 347 351 351 353 355 354 353 354 355 348 341 342 345 346 346 346 346 345 344 341 343 340 336 334 336 336 337 343 345 339 331 325 326 326 326
315 317 319 323 328 332 335 331 334 333 331 327 329 341 350 355 357 358 355 355 353 355 355 353 339 340 343 344 345 345 345 345 345 345 344 341 337 335 336 337 338 341 337 329 324 324 327 329 335
317 317 322 324 326 328 332 330 331 326 325 326 329 336 349 356 357 356 355 355 354 354 354 352 338 338 340 341 342 343 343 344 344 344 342 340 337 335 337 337 335 333 330 322 323 327 329 329 334
316 319 320 324 325 324 327 329 325 326 327 326 328 336 350 355 355 355 355 354 353 353 352 346 336 335 336 337 339 340 340 340 341 340 338 337 336 336 337 336 333 333 329 323 325 328 330 330 335
314 319 323 324 324 323 324 324 324 325 326 327 338 343 353 358 358 357 355 354 352 353 352 346 334 333 333 335 337 336 334 333 333 333 333 334 335 336 336 334 333 334 329 321 324 329 330 330 330
318 318 321 321 323 321 322 323 323 323 324 331 346 349 352 358 359 357 355 354 352 352 353 351 334 332 332 334 336 334 333 332 332 331 331 333 335 336 336 334 333 333 327 321 322 325 328 330 331
316 318 316 318 320 322 322 322 323 323 324 335 337 349 346 358 357 357 355 353 352 352 353 351 346 333 331 334 335 334 334 333 332 330 330 332 334 335 335 333 333 331 327 321 318 322 325 328 329
315 317 315 317 318 319 321 322 323 324 324 328 328 335 339 355 357 356 355 353 353 352 352 351 349 345 343 342 335 335 334 334 333 332 330 331 334 334 333 333 334 334 331 325 320 318 320 325 328
312 314 314 315 317 318 320 320 321 322 328 329 328 323 327 352 355 355 354 353 353 352 352 352 351 348 346 345 343 336 336 335 335 334 332 332 341 340 340 340 337 336 334 331 326 322 319 318 320
316 314 314 315 316 317 318 319 321 322 324 327 327 325 350 354 354 353 353 353 352 352 352 352 352 349 347 346 347 347 346 346 345 345 344 344 345 345 344 342 336 334 332 331 330 328 325 323 329
311 314 314 315 316 317 316 318 318 321 323 324 328 323 329 351 354 352 351 350 351 351 351 351 351 351 347 344 346 347 348 348 347 346 344 345 344 342 341 343 341 341 338 341 339 340 337 337 335
312 312 313 314 315 317 317 317 317 319 321 323 324 323 324 328 347 354 352 351 351 351 351 352 352 351 350 346 346 346 346 347 347 347 346 346 345 345 345 345 344 343 343 342 341 339 335 327 326
311 311 311 313 314 314 314 315 315 316 318 321 322 326 325 324 323 332 350 353 352 351 351 351 352 352 351 348 347 347 346 347 347 348 347 347 347 346 346 346 345 345 344 344 344 343 341 340 339
311 311 311 311 312 313 314 314 314 314 315 316 320 322 325 326 326 324 325 349 353 353 351 350 351 352 351 350 349 348 347 347 348 347 348 348 347 345 347 347 346 345 344 344 343 344 344 343 342
313 313 315 312 311 311 312 313 313 314 315 317 323 325 327 328 327 327 326 320 340 350 353 353 351 352 352 351 351 350 350 349 349 349 349 350 348 347 348 348 347 347 346 344 345 345 344 344 344
315 312 317 317 313 311 312 311 313 315 316 316 318 320 325 328 327 327 324 320 319 318 339 353 352 351 351 351 350 351 351 351 351 351 350 349 348 345 344 346 347 348 348 347 346 346 346 345 344
314 318 316 316 313 313 312 313 315 316 316 317 320 322 324 327 329 329 327 321 319 322 320 339 348 351 350 348 347 348 347 347 347 348 349 350 350 349 348 349 350 348 348 348 347 348 346 346 347
318 315 315 316 315 313 313 315 316 316 316 318 321 320 322 325 328 328 327 319 319 324 326 337 344 350 350 350 347 347 347 347 347 349 349 349 349 349 349 349 349 347 349 349 348 347 348 347 346
316 317 318 318 317 314 315 315 316 316 319 319 321 320 324 327 329 327 321 318 321 328 335 344 346 348 348 347 346 348 349 346 349 350 349 347 347 347 347 348 347 346 344 344 345 346 346 344 344
316 317 318 318 316 315 316 316 317 316 317 321 319 322 324 326 326 322 320 319 322 332 339 343 345 345 345 345 344 343 340 335 328 324 324 323 322 323 322 325 332 332 331 335 335 336 336 336 338
317 317 318 317 317 317 316 318 317 317 316 316 317 320 321 324 323 322 321 324 325 331 333 333 332 336 338 336 329 325 321 324 323 321 321 321 321 321 320 321 322 327 330 327 332 332 334 333 333
318 317 317 318 318 319 318 318 320 319 317 317 318 319 319 320 322 323 324 325 326 329 329 327 324 322 321 321 320 320 322 322 318 316 316 317 317 316 316 316 317 317 323 324 326 328 331 333 332
318 317 318 319 319 319 320 319 320 319 319 320 321 320 321 323 323 323 325 325 325 324 322 321 321 320 320 319 318 320 321 320 318 319 319 318 318 317 318 319 323 321 324 323 326 329 330 327 329
317 318 318 318 319 320 319 319 319 320 320 322 321 321 321 322 325 326 325 324 322 321 321 320 320 320 320 320 320 320 320 320 322 322 321 321 320 320 319 320 321 323 325 328 327 328 329 328 327
317 320 321 321 321 320 319 320 320 320 321 320 322 322 322 324 325 324 324 323 322 319 318 317 317 316 316 316 315 314 313 313 314 315 316 315 316 317 319 318 319 323 325 326 326 327 328 327 326
318 320 320 321 320 320 321 322 321 321 320 319 321 322 323 323 321 321 320 319 318 316 316 316 315 313 312 311 310 309 308 311 311 311 311 311 312 312 314 314 316 318 319 323 326 326 325 325 326
319 319 318 322 321 321 321 322 322 320 320 321 321 322 322 319 318 316 315 315 315 314 313 312 311 311 311 310 310 310 310 310 310 310 310 310 311 311 311 311 312 313 313 315 317 320 323 324 325
320 319 324 322 325 323 322 323 320 323 322 322 321 321 319 316 316 316 315 314 312 311 311 311 310 310 309 309 308 308 309 309 308 308 309 309 309 309 309 309 310 310 310 311 313 314 317 319 322
320 322 322 324 325 326 323 322 322 323 323 322 320 318 317 317 316 315 314 312 310 310 310 310 309 308 307 307 307 308 308 307 307 307 307 307 307 307 307 307 307 307 308 309 311 312 313 315 318
321 322 323 326 326 324 324 323 319 320 321 320 317 315 315 315 314 313 312 311 310 310 309 309 308 307 306 306 306 306 306 306 306 306 306 306 306 306 306 306 306 307 307 307 307 308 309 311 315
Wind_Speed
6 5 6 1 3 2 4 4 3 6 3 3 12 8 8 4 5 2 1 11 17 27 25 28 31 31 28 29 31 33 32 30 28 28 25 22 22 22 22 20 18 17 14 13 12 13 14 15 16
4 2 2 1 4 7 6 3 7 5 10 18 9 3 5 4 1 4 12 9 22 25 24 23 31 30 29 29 29 30 30 28 27 26 23 21 21 22 21 19 17 15 13 12 13 14 14 15 15
6 5 3 3 4 12 6 6 3 6 12 10 5 4 4 3 1 6 4 17 25 25 23 24 30 30 28 28 28 28 28 27 26 25 23 21 21 21 21 19 17 14 13 13 14 14 13 13 13
5 3 3 6 13 8 8 3 2 10 9 5 7 11 1 4 1 3 18 21 25 25 24 26 29 29 28 26 26 26 26 26 26 24 21 21 21 21 20 18 16 14 12 13 14 14 13 12 13
3 2 6 7 17 6 8 8 7 9 12 15 8 3 0 3 4 11 19 21 27 26 25 27 29 28 27 26 26 25 25 24 23 22 21 21 22 22 19 17 15 13 11 12 13 13 13 12 12
3 2 6 17 19 5 7 11 9 10 15 13 6 4 0 1 6 13 16 20 23 24 25 24 29 28 28 27 27 26 25 23 21 20 20 21 22 21 19 17 15 12 11 11 12 13 13 12 11
5 5 16 15 12 16 12 9 10 10 12 7 2 3 2 1 4 12 13 18 21 22 22 22 24 27 27 26 26 26 24 23 20 19 19 20 21 20 18 17 15 12 11 10 11 12 13 12 12
3 3 9 9 11 14 5 3 1 7 12 6 3 1 2 3 8 12 12 17 18 22 21 21 20 21 21 23 26 26 24 22 20 18 18 18 19 18 17 16 14 12 11 10 10 11 12 12 13
2 6 11 12 13 9 6 7 2 5 5 6 4 2 3 7 13 12 14 16 17 17 21 21 20 20 19 19 21 25 23 21 19 17 17 17 14 16 15 15 14 13 11 11 11 11 11 13 14
6 6 10 5 11 8 15 15 11 7 10 5 4 9 7 9 12 13 15 17 19 20 20 21 22 21 20 17 16 17 16 15 14 13 14 13 12 12 13 14 15 14 13 12 12 12 13 13 11
4 7 5 5 10 12 17 8 4 13 17 9 7 4 6 6 9 10 12 16 19 18 19 20 19 19 21 19 18 17 16 15 16 16 16 14 13 13 13 11 12 13 13 11 11 12 11 11 12
5 8 11 5 9 7 14 11 14 15 18 15 7 8 3 5 9 12 13 12 12 16 18 19 19 19 20 19 19 17 16 15 15 15 16 14 14 13 13 12 12 13 12 13 14 13 15 18 19
10 11 8 13 14 15 14 17 18 18 18 21 13 8 1 5 5 6 15 14 15 17 19 21 21 21 21 20 17 17 17 16 13 13 15 15 14 14 13 13 13 12 12 13 13 14 14 16 16
7 13 14 11 15 10 17 22 18 13 14 24 20 19 7 3 3 2 5 19 18 19 21 20 22 23 21 21 19 17 17 15 15 14 14 16 15 16 14 14 15 15 16 16 16 15 15 17 17
3 8 10 12 15 12 13 20 22 13 18 21 13 16 14 8 5 10 13 8 16 21 17 18 17 18 21 21 19 16 15 15 15 13 14 15 15 16 16 15 16 16 15 18 17 17 17 19 19
3 2 6 6 13 11 15 18 20 14 19 19 20 15 7 13 10 6 10 14 11 12 17 15 16 19 20 20 17 16 14 14 14 13 12 14 15 15 15 14 15 14 16 14 15 15 17 19 19
3 5 7 10 13 7 15 15 21 21 17 17 14 14 11 15 19 22 14 10 10 10 12 14 19 21 22 22 21 18 19 17 16 14 12 13 13 13 14 12 12 12 14 16 17 17 18 19 19
4 5 6 10 1 16 15 20 18 17 20 16 13 16 14 18 22 28 17 8 9 10 9 12 15 16 18 20 18 16 16 15 13 11 10 11 11 11 12 10 12 11 11 13 14 16 17 18 21
8 11 14 16 8 8 20 22 21 15 16 17 17 18 18 23 24 32 9 8 8 8 12 13 16 15 18 21 17 11 10 9 9 9 9 8 8 10 10 9 9 10 11 12 13 15 16 18 18
15 15 18 15 4 9 7 18 18 9 12 16 16 20 15 18 14 15 7 14 16 15 15 13 14 16 18 22 20 15 14 11 11 8 6 5 5 6 7 8 8 9 10 11 12 13 16 17 16
15 14 14 12 7 4 3 5 8 7 12 10 11 18 15 16 16 13 11 12 13 13 16 19 19 19 19 20 19 18 13 12 8 7 6 7 6 6 7 9 10 10 10 12 12 12 14 17 17
15 14 17 14 5 7 3 3 3 3 9 12 11 11 18 15 12 9 11 13 13 13 21 25 26 24 21 17 14 12 8 6 4 3 4 5 9 11 12 13 14 15 13 15 14 13 14 14 18
8 7 15 8 7 4 4 4 3 2 6 8 11 11 9 9 10 9 10 14 16 22 22 20 18 16 12 8 7 5 3 1 3 5 9 12 14 14 16 16 16 18 17 19 18 17 16 16 18
5 3 4 3 3 7 1 3 3 4 3 2 3 5 8 11 13 13 16 17 16 14 13 14 12 11 7 5 3 1 2 4 5 6 10 12 15 17 19 19 20 21 21 19 20 20 19 20 20
8 7 6 7 6 7 1 4 0 3 1 4 6 7 10 12 15 14 13 12 12 11 10 10 9 10 8 6 5 5 3 4 6 8 8 13 14 16 18 21 21 20 21 22 22 23 24 24 24
9 11 7 10 8 6 3 5 3 2 5 6 6 10 12 12 11 11 9 10 10 10 10 11 10 9 8 7 6 5 5 6 8 9 12 15 17 18 19 21 21 21 21 22 23 25 26 26 27
6 6 1 5 2 3 2 2 5 1 5 8 12 12 11 10 8 8 8 11 12 13 12 10 8 7 6 6 6 8 9 11 13 15 16 18 19 21 21 22 24 24 24 24 23 26 26 27 28
4 10 4 2 6 7 4 3 5 5 9 13 14 13 10 8 8 9 10 12 11 10 8 8 7 6 5 7 8 10 12 13 15 17 19 20 21 21 22 22 22 23 24 25 26 28 27 27 30
5 4 4 4 1 4 6 4 1 5 12 15 12 9 9 9 10 10 10 10 8 6 6 6 7 9 11 12 13 14 15 16 16 18 19 19 19 19 19 20 20 21 22 22 24 27 30 31 30
2 3 5 6 6 1 1 3 5 5 12 12 9 8 8 10 9 8 8 6 5 5 6 9 11 12 13 14 15 16 17 17 17 18 18 17 18 18 19 19 20 22 23 23 25 28 30 33 32
Wind_Direction
260 304 318 315 234 257 233 227 288 252 264 360 312 272 294 290 244 311 23 158 156 155 158 166 170 170 165 162 160 163 164 165 163 162 160 157 156 158 159 158 162 163 161 159 157 152 148 143 140
203 163 58 100 235 222 233 224 243 295 318 315 302 304 245 283 302 116 129 157 153 153 155 161 171 171 170 166 164 165 166 168 167 166 164 161 162 162 163 163 165 166 169 168 162 159 154 151 151
154 155 213 216 214 224 232 200 263 333 320 304 295 305 296 325 343 170 174 155 155 152 157 163 171 172 173 171 170 168 168 170 171 169 167 167 168 167 168 168 169 170 172 170 167 166 165 166 167
160 141 110 232 224 227 230 161 3 334 332 328 302 291 157 21 307 182 151 153 156 156 160 169 173 174 174 172 173 170 168 167 169 172 173 172 171 172 173 173 172 174 175 174 174 176 178 179 179
72 153 214 228 239 240 233 277 321 320 307 307 306 285 119 52 76 139 155 159 160 160 163 170 176 176 178 175 175 172 170 170 172 175 176 175 176 176 176 177 178 181 182 183 185 187 190 192 195
143 207 210 227 230 228 238 269 290 293 294 317 274 288 19 79 133 156 160 162 164 163 164 170 179 180 182 180 178 177 175 173 175 177 179 179 181 182 182 184 186 190 193 194 197 199 202 205 210
197 193 228 241 244 246 242 260 259 287 289 288 285 292 10 221 174 161 163 163 165 165 167 170 177 184 185 186 183 182 181 179 179 180 182 183 186 187 189 190 192 197 202 206 208 212 216 220 224
168 220 222 227 233 248 218 216 284 263 273 330 266 14 359 107 152 155 158 165 167 166 171 176 179 182 185 191 190 188 187 185 183 183 184 186 189 192 193 196 202 208 214 217 220 225 231 235 240
152 223 233 229 217 228 217 242 220 319 262 288 294 114 314 163 150 155 154 163 169 176 178 181 184 184 188 191 195 194 193 191 189 188 188 189 189 196 203 208 214 220 228 233 238 241 245 249 254
205 223 224 222 230 245 247 248 263 306 307 294 237 90 100 157 175 176 177 176 185 189 191 189 188 188 187 189 190 192 194 193 191 194 194 193 201 202 206 217 225 233 238 243 247 252 257 263 263
165 239 205 231 237 236 253 248 259 257 268 277 279 128 102 167 207 207 204 196 200 199 197 198 194 192 191 190 191 191 192 193 198 201 201 204 209 214 217 224 228 234 243 246 255 256 255 253 263
216 221 222 234 231 243 256 271 253 244 256 274 302 311 81 131 245 232 215 213 206 206 207 202 200 199 200 197 196 196 196 200 202 206 209 212 217 223 224 230 233 235 235 241 248 252 257 265 269
222 241 225 236 243 248 264 264 256 260 265 275 289 262 236 119 159 234 263 232 216 217 212 210 203 203 204 203 203 198 198 203 207 210 217 218 222 229 233 240 242 249 252 252 257 262 263 271 270
202 242 253 245 237 236 244 255 249 251 273 269 270 260 207 242 297 39 209 249 234 226 219 213 209 209 207 207 206 205 203 205 209 216 222 226 231 235 238 244 246 249 255 258 263 270 274 276 276
312 289 279 245 241 245 224 250 253 263 256 260 267 258 218 222 284 301 301 249 248 242 225 219 213 211 212 210 209 208 209 212 218 226 231 227 233 243 243 246 249 253 258 265 265 270 277 277 280
272 259 276 287 210 229 194 252 260 250 251 247 254 270 298 243 246 305 277 274 282 259 243 226 211 212 213 211 207 207 211 217 230 233 234 232 236 242 251 248 253 256 257 263 265 264 269 272 278
204 259 245 289 213 207 187 239 245 244 237 234 228 235 257 274 261 279 277 255 257 265 243 223 217 216 215 219 218 219 226 230 239 244 239 240 239 240 250 254 260 262 262 265 267 270 270 273 276
190 229 248 259 225 220 212 237 237 230 203 208 225 230 244 248 247 255 225 218 231 228 224 210 203 209 206 212 212 213 219 223 234 241 241 238 238 239 244 253 268 268 264 268 268 266 269 267 276
266 285 278 272 262 208 222 228 237 250 201 206 223 221 212 220 220 238 209 228 222 213 203 196 184 189 186 183 176 175 186 213 227 233 233 229 236 241 241 249 256 258 262 265 268 270 269 272 276
244 264 267 284 262 212 225 230 235 217 237 220 212 218 218 219 206 228 208 189 205 197 180 173 174 173 176 184 184 188 160 146 144 144 148 168 192 212 224 235 246 254 266 273 275 274 277 276 271
236 241 258 266 317 194 204 240 236 233 230 242 224 220 221 220 210 224 204 188 184 175 158 150 144 145 148 149 144 144 136 142 160 177 193 206 220 240 256 266 267 269 266 271 268 270 268 274 274
250 227 246 263 265 234 260 257 186 276 222 194 188 199 211 217 219 209 182 174 145 151 141 134 133 131 132 140 150 150 148 158 181 227 256 268 275 276 276 282 277 284 274 273 278 279 271 274 279
249 240 217 231 224 280 191 235 118 219 204 204 174 188 189 178 183 183 164 134 135 134 135 132 133 135 132 122 118 107 78 20 278 275 264 259 264 269 270 271 271 272 271 268 264 262 262 264 265
147 145 103 119 168 235 184 256 149 157 167 138 186 158 168 160 142 138 132 131 121 117 118 122 120 105 107 105 97 110 300 299 303 291 292 292 289 284 277 277 274 269 267 270 269 265 259 258 261
195 194 193 209 208 242 143 203 93 161 223 263 239 158 143 138 131 132 128 121 113 88 85 98 97 87 89 86 76 66 36 336 327 316 301 296 293 292 292 291 287 279 274 271 270 270 268 264 263
191 207 220 216 213 215 172 205 161 303 284 248 165 144 130 124 120 121 118 115 111 101 101 106 102 93 80 75 56 22 346 327 312 294 290 287 284 284 284 285 283 280 280 275 270 266 265 265 263
166 205 157 112 79 223 181 225 247 90 66 125 129 133 134 121 106 99 96 102 110 110 105 103 97 81 53 25 359 334 320 306 297 295 290 288 287 288 289 286 284 281 279 275 273 269 264 262 263
217 139 163 167 206 235 197 242 240 178 146 150 152 147 140 115 104 102 105 105 101 96 89 76 62 40 2 336 324 312 308 304 299 300 297 294 291 289 289 287 285 286 284 279 274 270 267 264 261
150 167 77 110 118 237 244 219 196 218 173 160 155 148 149 146 136 127 120 112 99 85 64 39 4 346 334 328 320 314 310 308 303 295 294 291 288 289 288 288 289 289 289 285 280 274 270 266 264
108 154 182 225 200 165 305 221 5 199 166 161 151 138 127 126 124 120 114 95 65 38 11 349 339 331 326 321 316 310 308 307 303 299 294 291 291 292 291 291 289 287 287 287 284 280 275 267 263